Jackpot

Texas Poker Multi Jackpot System

Kini Telah hadir Jackpot SUPER ROYAL FLUSH

Kini Telah hadir Jackpot 2000 (khusus table VIP keatas).

Ikutilah global jackpot yang tersedia di system kami, dengan system jackpot terbaru dan pertama di indonesia, anda dapat membeli jackpot dengan harga 100 rupiah saja dan menangkan hadiahnya hingga puluhan juta rupiah.

Jackpot bukanlah suatu keharusan untuk dibeli, namun kami memberikan suatu fitur tambahan untuk member tercinta dari www.rajanyapoker.com.

Terdapat tiga pilihan harga jackpot yang bisa anda beli yaitu :100,500,1000 dan 2000(khusus table VIP Keatas) rupiah.

Hadiah dari Multi jackpot system www.rajanyapoker.com

  1. full house x 10 harga jackpot yang anda beli.
      (contoh:anda membeli 1000 maka:1000 X10 = 10.000)
  2. four of kind x 250 harga jackpot yang anda beli
      (contoh:anda membeli 1000 maka:1000 X250 = 250.000)
  3. Straight flush x 1200
      (contoh:anda membeli 1000 maka:1000 X1200 = 1.200.000)
  4. Royal flush x 10000 harga jackpot yang anda beli
      (contoh:anda membeli 1000 maka:1000 X10000 = 10.000.000)
  5. SUPER ROYAL FLUSH x 30000 harga jackpot yang anda beli
      (contoh:anda membeli 1000 maka:1000 X30000 = 30.000.000)

Kondisi kartu

  1. full house adalah kondisi kartu dimana kartu anda dan kartu tengah dengan total 7 kartu bisa mendapatkan nilai 5 kartu dengan kombinasi 1 tris(three of kind) dan 1 pair, contoh 3 kartu 10 dan 2 kartu 5
  2. Four of kind adalah kondisi kartu dimana kartu anda dan kartu tengah dengan total 7 kartu bisa mendapatkan nilai 5 kartu dengan kombinasi 4 kartu yang sama jumlah dan 1 kartu apapun juga contoh anda mendapatkan 4 buah kartu angka 3 dan 1 kartu apapun.
  3. Staright flush adalah kondisi kartu dimana kartu anda dan kartu tengah dengan total 7 kartu bisa mendapatkan nilai 5 kartu dengan kombinasi seri / staright dengan kembang yang sama contoh : urutan kartu dari angka 5, 6, 7, 8 , 9 10 dengan kembang yg sama misalnya as hati
  4. Royal flush adalah kondisi kartu dimana kartu anda dan kartu tengah dengan total 7 kartu bisa mendapatkan nilai 5 kartu dengan kombinasi seri / staright dengan kembang yang sama tetapi kartu tersebut haruslah dimulai dari 10. contoh 10, Queen, Jack, King dan aces dengan kembang yang sama
  5. Super Royal flush adalah kondisi kartu dimana Kedua kartu anda digabung dengan 3 kartu pertama meja haruslah royal flush. contoh kartu anda 10,Queen kembang sama dan 3 kartu pertama meja adalah Jack, King dan aces dengan kembang yang sama

Demikian adalah penjelasan dari Multi Jackpot www.rajanyapoker.com terima kasih dan selamat bermain salam hoki dari kami

Texas Poker Jackpot Winner

TOP SUPER ROYAL FLUSH
No.TanggalNamaPriceWin
123/05 23:13A53MPI0N289Super Royal flush6,000,000
223/05 16:49MANTUNGGGSuper Royal flush6,000,000
323/05 12:44CRIZ05Super Royal flush6,000,000
423/05 06:58MEJEWSuper Royal flush15,000,000
523/05 04:35MIZA03Super Royal flush15,000,000
TOP ROYAL FLUSH
No.TanggalNamaPriceWin
123/05 23:16HHCL3HRoyal flush20,000,000
223/05 23:04BOMBOM3051Royal flush1,000,000
323/05 22:53P4M3L424Royal flush1,000,000
423/05 22:25W3RW556SU3Royal flush2,000,000
523/05 22:25P0CK3TRoyal flush10,000,000
TOP STRAIGHT FLUSH
No.TanggalNamaPriceWin
123/05 23:16PUTR134Straight Flush120,000
223/05 23:14PNLW92XYHMStraight Flush600,000
323/05 23:12CIMOYY999Straight Flush1,200,000
423/05 23:10MUJURRR21Straight Flush240,000
523/05 23:10NAWAITU04Straight Flush600,000
LATEST JACKPOT
No.TanggalNamaPriceWin
123/05 23:17ZIA99_99Full House5,000
223/05 23:17P3NDHOSAFull House5,000
323/05 23:17JENDRAL883Full House2,000
423/05 23:17SYAMSIR25Full House2,000
523/05 23:17D1B6D466Full House2,000
623/05 23:17SIEE66Full House500
723/05 23:17EVIDWIFull House2,000
823/05 23:17SHIINOWNAAFull House2,000
923/05 23:17AGUSC1KFull House2,000
1023/05 23:17T4D0014984Full House10,000
1123/05 23:17EXSIMERSFull House5,000
1223/05 23:17ATMHOKILURFull House2,000
1323/05 23:17MAKAU77Full House10,000
1423/05 23:17BOCIN0885Full House10,000
1523/05 23:17CAHMP21Full House5,000
1623/05 23:17JIPLENGFull House2,000
1723/05 23:17TEMPIK01Full House2,000
1823/05 23:17MERMED99Full House5,000
1923/05 23:17MIO4251Full House500
2023/05 23:17BANGKU4444Full House1,000
2123/05 23:17JUDIGABAIKFour Of A Kind50,000
2223/05 23:17MDRWONG3D4NFull House1,000
2323/05 23:17BABYSMOKEFull House5,000
2423/05 23:17MAZCOT_LLFull House5,000
2523/05 23:17LOYAK13Full House2,000
2623/05 23:17DEA966E1Full House1,000
2723/05 23:17BRAG79Full House2,000
2823/05 23:17YOWISMENFull House1,000
2923/05 23:17JAGURTUKFull House1,000
3023/05 23:17DOITAUKETAFull House5,000
3123/05 23:17POETOEY17Full House2,000
3223/05 23:17IFIF1717Full House5,000
3323/05 23:17F408FF9BFull House2,000
3423/05 23:17BMGKEWYUMXFull House10,000
3523/05 23:17T4RHIR1M99Full House1,000
3623/05 23:17G1L3H87Full House5,000
3723/05 23:17CINTAEMBUNFour Of A Kind250,000
3823/05 23:17TRAILER17Four Of A Kind50,000
3923/05 23:17LUCKYLAKI2Full House5,000
4023/05 23:17FARIIQQFull House1,000
4123/05 23:17JAM3ESB0NDFull House5,000
4223/05 23:17PLGP3LANGI4DFull House5,000
4323/05 23:17CUAN9090Full House5,000
4423/05 23:17BUATHAPEFull House5,000
4523/05 23:17B3997BKDFull House2,000
4623/05 23:16MR_J88Full House5,000
4723/05 23:16ZAMSENX41Full House2,000
4823/05 23:16KAYULAPIS5Full House20,000
4923/05 23:16DIANAKU2Four Of A Kind125,000
5023/05 23:16IYEE07Full House1,000

Domino Multi Jackpot System

Ikutilah global jackpot yang tersedia di system kami, dengan system jackpot terbaru dan pertama di indonesia, anda dapat membeli jackpot dengan harga 100 rupiah saja dan menangkan hadiahnya hingga puluhan juta rupiah.

Jackpot bukanlah suatu keharusan untuk dibeli, namun kami memberikan suatu fitur tambahan untuk member tercinta dari www.rajanyapoker.com.

Terdapat tiga pilihan harga jackpot yang bisa anda beli yaitu :100,500 dan 1000 rupiah.

Hadiah dari Multi jackpot system www.rajanyapoker.com

  1. Murni Kecil x 50 harga jackpot yang anda beli.
      (contoh:anda membeli 1000 maka:1000 X 50 = 50.000)
  2. Murni Besar x 50 harga jackpot yang anda beli
      (contoh:anda membeli 1000 maka:1000 X 50 = 50.000)
  3. BALAK x 100 harga jackpot yang anda beli
      (contoh:anda membeli 1000 maka:1000 X 100 = 100.000)
  4. ENAM DEWA x 6666 harga jackpot yang anda beli
      (contoh:anda membeli 1000 maka:1000 X 6666 = 6.666.000)

Demikian adalah penjelasan dari Multi Jackpot www.rajanyapoker.com terima kasih dan selamat bermain salam hoki dari kami

Domino Jackpot Winner

TOP ENAM DEWA
No.TanggalNamaPriceWin
123/05 23:13LUCKYME88murni enam3,333,000
223/05 22:22NASIRSAJALmurni enam3,333,000
323/05 20:25J9FW8ZOWK8murni enam3,333,000
423/05 16:47SAHADAD99murni enam6,666,000
523/05 15:22LOPEKBUGImurni enam6,666,000
TOP BALAK
No.TanggalNamaPriceWin
123/05 23:11AZ069balak10,000
223/05 23:10IBUJARIIbalak100,000
323/05 23:09SIYAHH563balak100,000
423/05 23:09DIANA_22balak50,000
523/05 23:06SEMUT686balak100,000
LATEST JACKPOT
No.TanggalNamaPriceWin
123/05 23:17ARMIN888ARmurni kecil5,000
223/05 23:17AE1922SHmurni besar50,000
323/05 23:15ZZZXXX2525murni kecil25,000
423/05 23:15ULET_Zmurni besar50,000
523/05 23:14BIGBREWlucky9925,000
623/05 23:14EBOTT21murni kecil25,000
723/05 23:14HALIMAH50murni besar25,000
823/05 23:13MAYZADAmurni besar50,000
923/05 23:13LUCKYME88murni enam3,333,000
1023/05 23:12BONTEK77murni kecil25,000
1123/05 23:12HAJIAJImurni kecil50,000
1223/05 23:12MALKOMmurni besar50,000
1323/05 23:11AZ069balak10,000
1423/05 23:11PJR2017murni kecil50,000
1523/05 23:11APEK2693murni kecil25,000
1623/05 23:10LITAAA01murni besar5,000
1723/05 23:10CIPLES22murni kecil50,000
1823/05 23:10TUBAGU521murni kecil50,000
1923/05 23:10IBUJARIIbalak100,000
2023/05 23:09BGBERRmurni kecil50,000
2123/05 23:09SIYAHH563balak100,000
2223/05 23:09DIANA_22balak50,000
2323/05 23:09RAI77murni kecil5,000
2423/05 23:08PJR2017murni besar50,000
2523/05 23:08IAIHmurni kecil50,000
2623/05 23:08ARMIN888ARmurni kecil5,000
2723/05 23:07H7Q0VQLXSImurni kecil50,000
2823/05 23:07ERWINKEYmurni besar50,000
2923/05 23:07EKETARABEmurni kecil25,000
3023/05 23:07KAYOLOKLAKmurni kecil5,000
3123/05 23:06DIKYUL82lucky9910,000
3223/05 23:06SEMUT686balak100,000
3323/05 23:05212QQZUlucky9950,000
3423/05 23:05P4RL3NT338murni kecil25,000
3523/05 23:05GEBER88balak100,000
3623/05 23:05Z4W1Rmurni besar50,000
3723/05 23:04ADAN07murni kecil5,000
3823/05 23:04A101murni besar50,000
3923/05 23:04NAPITU36balak100,000
4023/05 23:04HOT48balak100,000
4123/05 23:04TAKUITmurni besar25,000
4223/05 23:03ASMAR72murni besar5,000
4323/05 23:03KENANGANKMmurni kecil50,000
4423/05 23:03CUTZZZmurni besar5,000
4523/05 23:02CES010balak100,000
4623/05 23:02EVANDRA75murni kecil5,000
4723/05 23:01DLM123murni besar50,000
4823/05 23:01RULIII883murni kecil25,000
4923/05 23:01FJM6HJJA5Hmurni kecil5,000
5023/05 23:00DWBTRI0835murni besar25,000

Ceme Multi Jackpot System

Jackpot dilihat dari gabungan kartu pemain dengan kartu bandar. Bandar harus membeli jackpot sebanyak jumlah player yang sedang duduk. Sebagai contoh bila terdapat 3 pemain duduk bermain, dan bandar memutuskan untuk membeli jackpot Rp 1.000, maka pada periode tersebut bandar akan membeli jackpot sebanyak 3xRp1.000 = Rp3.000.

Jackpot bukanlah suatu keharusan untuk dibeli, namun kami memberikan suatu fitur tambahan untuk member tercinta dari www.rajanyapoker.com.

Terdapat tiga pilihan harga jackpot yang bisa anda beli yaitu :100,500 dan 1000 rupiah.

Hadiah dari Multi jackpot system www.rajanyapoker.com

  1. Murni Kecil x 50 harga jackpot yang anda beli.
      (contoh:anda membeli 1000 maka:1000 X 50 = 50.000)
  2. Murni Besar x 50 harga jackpot yang anda beli
      (contoh:anda membeli 1000 maka:1000 X 50 = 50.000)
  3. BALAK x 200 harga jackpot yang anda beli
      (contoh:anda membeli 1000 maka:1000 X 200 = 200.000)
  4. ENAM DEWA x 6666 harga jackpot yang anda beli
      (contoh:anda membeli 1000 maka:1000 X 6666 = 6.666.000)

Demikian adalah penjelasan dari Multi Jackpot www.rajanyapoker.com terima kasih dan selamat bermain salam hoki dari kami

Ceme Jackpot Winner

TOP ENAM DEWA
No.TanggalNamaPriceWin
123/05 23:12BAKHASIWAmurni enam3,333,000
223/05 23:12DIANSYAH22murni enam3,333,000
323/05 23:08AQUILLA99murni enam3,333,000
423/05 23:02SEDOOOTTmurni enam3,333,000
523/05 23:02HOKIFLSHmurni enam3,333,000
TOP BALAK
No.TanggalNamaPriceWin
123/05 23:17MUDAH989balak200,000
223/05 23:16DEDYPLN34balak200,000
323/05 23:16TANKTANK99balak200,000
423/05 23:16EHS86balak20,000
523/05 23:15B05876balak200,000
LATEST JACKPOT
No.TanggalNamaPriceWin
123/05 23:17YOIBROW89murni besar50,000
223/05 23:17HERMAN1222murni besar25,000
323/05 23:17UUYAU1313murni besar50,000
423/05 23:17AWALAKILmurni besar5,000
523/05 23:17KIMKIM75murni kecil5,000
623/05 23:17GORDO6666murni kecil25,000
723/05 23:17MUDAH989balak200,000
823/05 23:16TAKISSSmurni kecil50,000
923/05 23:16JAMBE71murni kecil50,000
1023/05 23:16RITA2116murni besar25,000
1123/05 23:16NACAA26murni besar25,000
1223/05 23:16RPT_2255murni besar50,000
1323/05 23:16DEDYPLN34balak200,000
1423/05 23:16DWBT3466murni kecil50,000
1523/05 23:16AAAAAFAF48murni kecil25,000
1623/05 23:16ZHOAY73murni kecil50,000
1723/05 23:16P4STYJPmurni besar50,000
1823/05 23:16HOBBYGUEmurni besar5,000
1923/05 23:16PENGOT007murni besar25,000
2023/05 23:16D4VIN09murni besar25,000
2123/05 23:16UEFO8TEW0Zmurni besar50,000
2223/05 23:16POKEY86murni kecil50,000
2323/05 23:16BICOENGXmurni kecil50,000
2423/05 23:16CUPUU01murni kecil50,000
2523/05 23:16HERRU965murni kecil50,000
2623/05 23:16HOKIE88888murni kecil50,000
2723/05 23:16NAGA190murni kecil50,000
2823/05 23:16BABITAImurni kecil5,000
2923/05 23:16ERWANTO22murni besar50,000
3023/05 23:16TANKTANK99balak200,000
3123/05 23:16ATRIZALmurni kecil50,000
3223/05 23:16EHS86balak20,000
3323/05 23:15SUHAIL1234murni kecil50,000
3423/05 23:15HERIMAS55murni kecil25,000
3523/05 23:15DZ2208murni kecil50,000
3623/05 23:15J053PXM7ISmurni kecil50,000
3723/05 23:15F4CHAmurni besar50,000
3823/05 23:15DURRAHmurni besar50,000
3923/05 23:15B05876balak200,000
4023/05 23:15MUHAMAD495balak100,000
4123/05 23:15AGE37murni kecil50,000
4223/05 23:15DIKA1221murni kecil50,000
4323/05 23:15SARMIN74murni kecil50,000
4423/05 23:15KOZEX1910murni kecil25,000
4523/05 23:15KASI_UANG8murni kecil50,000
4623/05 23:15KURAMOKOTmurni kecil50,000
4723/05 23:14BAKHASIWAbalak100,000
4823/05 23:14HERNANDA19balak200,000
4923/05 23:14YAKINWINSbalak100,000
5023/05 23:14YAKINWINSbalak100,000